Regional Weather Roundup
Issued by NWS Midland/Odessa, TX

Skip options and go directly to product.
Home | Oldest Version | Previous Version | Current Version | All | Text Only | Save Text | Print | Product List | Glossary Off

Skip product version selection by date and time.   

380
ASUS44 KMAF 271310
RWRMAF
MIDLAND AREA WEATHER ROUNDUP
NATIONAL WEATHER SERVICE MIDLAND TX
700 AM CST FRI FEB 27 2015

...IN SOUTHWEST TEXAS AND SOUTHEAST NEW MEXICO...

CITY           SKY/WX    TMP DP  RH WIND       PRES   REMARKS
ALPINE         CLOUDY    23  22  96 NE5       30.15S VSB 1/2 WCI  17
ANDREWS        LGT RAIN  17  16  93 E13       30.24S WCI   4
ARTESIA        CLOUDY    21  21 100 SE12      30.20R WCI   9
BIG SPRING     CLOUDY    21  18  87 NE12      30.30S WCI   9
CARLSBAD       CLOUDY    23  20  88 E12       30.19R WCI  12
DRYDEN           N/A     30  28  92 E9        30.20R WCI  22
FORT STOCKTON  CLOUDY    24  24 100 E8        30.20R FOG     WCI  15
GUAD PASS      FOG       19  16  88 NE26      30.00R VSB 1   WCI   1
HOBBS          FLURRIES  18  16  93 E15       30.22R WCI   3
MARFA          CLOUDY    25  23  93 NE10      30.06S WCI  15
MIDLAND AIRPK  CLOUDY    21  19  91 NE13      30.27R FOG     WCI   8
MIDLAND INTL   CLOUDY    20  17  88 NE15      30.24S FOG     WCI   6
ODESSA         CLOUDY    19  16  88 E14       30.24R FOG     WCI   6
PECOS          CLOUDY    25  22  87 E14       30.23S WCI  13
PRESIDIO       FAIR      33  26  73 NE9G18    30.09R WCI  26
SEMINOLE       LGT SNOW  18  15  89 E12       30.25S WCI   5
SNYDER         LGT SNOW  18  15  89 NE10      30.33R WCI   6
WINK           CLOUDY    23  18  81 E14       30.22S WCI  11
$$
...OTHER STATIONS IN TEXAS...

CITY           SKY/WX    TMP DP  RH WIND       PRES   REMARKS
ABILENE        LGT SNOW  22  19  89 E8        30.37R VSB 3/4 WCI  12
AMARILLO       LGT SNOW  13  10  88 E12       30.29F VSB 3/4 WCI  -1
AUSTIN         CLOUDY    34  22  61 N14       30.38R WCI  25
BROWNSVILLE    MOCLDY    54  51  90 N5        30.20R
CORPUS CHRISTI CLOUDY    40  33  76 NE20      30.28R WCI  30
DALLAS FTW     CLOUDY    26  11  52 NE13      30.44R WCI  15
DEL RIO        CLOUDY    37  28  70 E7        30.28R WCI  32
EL PASO        CLOUDY    31  22  69 E7        30.02R WCI  24
HOUSTON INT    CLOUDY    38  32  79 E12       30.34R WCI  30
LUBBOCK        LGT SNOW  14  11  87 E14       30.28R VSB 3/4 WCI  -1
SAN ANGELO     CLOUDY    25  22  88 NE14      30.31R WCI  13
SAN ANTONIO    CLOUDY    36  22  56 NE13      30.34R WCI  27
WACO           CLOUDY    29  17  61 NE10      30.42R WCI  20
WICHITA FALLS  NOT AVBL
$$
...OTHER LOCATIONS IN NEW MEXICO...

CITY           SKY/WX    TMP DP  RH WIND       PRES   REMARKS
ALAMAGORDO     CLOUDY    32  30  93 MISG      30.02R
ALBUQUERQUE    CLOUDY    23  16  74 E18       29.96F WCI   9
CANNON AFB     LGT SNOW  13  10  89 SE13      30.18S FOG     WCI  -1
CLOVIS         CLOUDY    12  10  92 E15       30.18F WCI  -4
HOLLOMAN AFB   CLOUDY    32  26  80 N6        30.00R WCI  26
ROSWELL        CLOUDY    20  17  88 E8        30.18R WCI  10
RUIDOSO        CLOUDY    14  10  85 SE10      30.00R FOG     WCI   1
SANTA FE       CLOUDY    17   8  67 SE16      29.96S WCI   2
TRUTH OR CONSE CLOUDY    33  32  96 NE5       29.95S WCI  29
TUCUMCARI      FLURRIES  16  12  84 E10       30.19R WCI   4
$$

USA.gov is the U.S. government's official web portal to all federal, state and local government web resources and services.